| time (UTC) | temp F | wind direction | speed MPH | gust MPH | rain 1hr in | rain 24hr in | rain mn in | humidity % | barometer mb |
| 20260905214016 | 76 | 0.0 | 0.0 | 0.00 | 0.15 | 0.05 | 84 | 1021.0 | |
| 20260905213516 | 77 | 0.0 | 0.0 | 0.00 | 0.15 | 0.05 | 84 | 1020.9 | |
| 20260905213036 | 77 | 0.0 | 0.0 | 0.00 | 0.15 | 0.05 | 87 | 1021.0 | |
| 20260905212536 | 77 | 0.0 | 0.0 | 0.00 | 0.15 | 0.05 | 87 | 1020.9 | |
| 20260905212017 | 77 | 0.0 | 0.0 | 0.00 | 0.15 | 0.05 | 87 | 1020.9 | |
| 20260905211516 | 77 | 0.0 | 0.0 | 0.00 | 0.15 | 0.05 | 87 | 1020.8 | |
| 20260905211016 | 77 | 0.0 | 0.0 | 0.00 | 0.15 | 0.05 | 85 | 1020.9 | |
| 20260905210517 | 77 | 0.0 | 0.0 | 0.00 | 0.15 | 0.05 | 86 | 1021.0 | |
| 20260905210016 | 77 | 0.0 | 0.0 | 0.00 | 0.15 | 0.05 | 89 | 1021.3 | |
| 20260905205517 | 77 | 0.0 | 0.0 | 0.00 | 0.15 | 0.05 | 89 | 1021.4 | |
| 20260905205016 | 77 | 0.0 | 0.0 | 0.00 | 0.15 | 0.05 | 89 | 1021.4 | |
| 20260905204516 | 77 | 0.0 | 0.0 | 0.00 | 0.15 | 0.05 | 90 | 1021.5 | |
| 20260905204016 | 77 | 0.0 | 1.0 | 0.00 | 0.15 | 0.05 | 89 | 1021.4 | |
| 20260905203516 | 76 | 0.0 | 0.0 | 0.00 | 0.15 | 0.05 | 90 | 1021.4 | |
| 20260905203036 | 76 | 0.0 | 1.0 | 0.01 | 0.15 | 0.05 | 90 | 1021.4 | |
| 20260905202516 | 76 | 0.0 | 1.0 | 0.01 | 0.15 | 0.05 | 89 | 1021.3 | |
| 20260905202036 | 76 | 0.0 | 1.0 | 0.01 | 0.15 | 0.05 | 88 | 1021.2 | |
| 20260905201516 | 76 | 0.0 | 1.0 | 0.01 | 0.15 | 0.05 | 89 | 1021.1 | |
| 20260905201036 | 76 | 0.0 | 2.0 | 0.01 | 0.15 | 0.05 | 90 | 1021.1 | |
| 20260905200516 | 75 | 0.0 | 0.0 | 0.01 | 0.15 | 0.05 | 92 | 1021.0 | |
| 20260905200016 | 75 | 135 | 1.0 | 2.0 | 0.01 | 0.15 | 0.05 | 92 | 1021.0 |
| 20260905195516 | 75 | 0.0 | 0.0 | 0.01 | 0.15 | 0.05 | 93 | 1021.2 | |
| 20260905195016 | 75 | 0.0 | 1.0 | 0.01 | 0.15 | 0.05 | 93 | 1021.2 | |
| 20260905194516 | 75 | 0.0 | 1.0 | 0.02 | 0.15 | 0.05 | 93 | 1021.5 | |
| 20260905194016 | 75 | 0.0 | 1.0 | 0.03 | 0.15 | 0.05 | 93 | 1021.7 | |
| 20260905193516 | 75 | 0.0 | 0.0 | 0.03 | 0.15 | 0.05 | 93 | 1021.5 | |
| 20260905193037 | 75 | 0.0 | 0.0 | 0.02 | 0.14 | 0.04 | 92 | 1021.5 | |
| 20260905192516 | 75 | 0.0 | 2.0 | 0.02 | 0.14 | 0.04 | 92 | 1021.5 | |
| 20260905192016 | 75 | 0.0 | 0.0 | 0.02 | 0.14 | 0.04 | 92 | 1021.8 | |
| 20260905191516 | 76 | 0.0 | 1.0 | 0.02 | 0.14 | 0.04 | 92 | 1021.9 | |
| 20260905191016 | 76 | 0.0 | 0.0 | 0.02 | 0.14 | 0.04 | 92 | 1021.9 | |
| 20260905190516 | 76 | 0.0 | 0.0 | 0.02 | 0.14 | 0.04 | 91 | 1021.9 | |
| 20260905190016 | 76 | 0.0 | 0.0 | 0.02 | 0.14 | 0.04 | 90 | 1021.7 | |
| 20260905185516 | 77 | 0.0 | 0.0 | 0.02 | 0.14 | 0.04 | 89 | 1021.6 | |
| 20260905185016 | 77 | 0.0 | 0.0 | 0.02 | 0.14 | 0.04 | 86 | 1021.7 | |
| 20260905184516 | 78 | 0.0 | 0.0 | 0.01 | 0.13 | 0.03 | 84 | 1021.4 | |
| 20260905184016 | 78 | 0.0 | 0.0 | 0.00 | 0.12 | 0.02 | 82 | 1021.7 | |
| 20260905183516 | 78 | 0.0 | 3.0 | 0.00 | 0.12 | 0.02 | 81 | 1021.6 | |
| 20260905183016 | 78 | 158 | 1.0 | 3.0 | 0.00 | 0.12 | 0.02 | 81 | 1021.3 |
| 20260905182516 | 78 | 158 | 1.0 | 3.0 | 0.00 | 0.12 | 0.02 | 84 | 1021.4 |
| 20260905182016 | 78 | 158 | 1.0 | 3.0 | 0.00 | 0.12 | 0.02 | 87 | 1021.7 |
| 20260905181516 | 78 | 158 | 1.0 | 4.0 | 0.00 | 0.12 | 0.02 | 87 | 1021.9 |
| 20260905181016 | 78 | 0.0 | 3.0 | 0.00 | 0.12 | 0.02 | 88 | 1022.0 | |
| 20260905180516 | 78 | 158 | 2.0 | 5.0 | 0.00 | 0.12 | 0.02 | 89 | 1022.0 |
| 20260905180016 | 77 | 158 | 1.0 | 5.0 | 0.00 | 0.12 | 0.02 | 89 | 1022.2 |
| 20260905175556 | 77 | 135 | 1.0 | 2.0 | 0.00 | 0.12 | 0.02 | 91 | 1022.2 |
| 20260905175016 | 77 | 135 | 1.0 | 3.0 | 0.00 | 0.12 | 0.02 | 90 | 1022.2 |
| 20260905174516 | 76 | 0.0 | 2.0 | 0.00 | 0.12 | 0.02 | 89 | 1022.2 | |
| 20260905174016 | 76 | 158 | 1.0 | 4.0 | 0.00 | 0.12 | 0.02 | 90 | 1022.4 |
| 20260905173516 | 76 | 0.0 | 3.0 | 0.00 | 0.12 | 0.02 | 89 | 1022.5 | |
| 20260905173016 | 76 | 0.0 | 3.0 | 0.01 | 0.12 | 0.02 | 90 | 1022.4 | |
| 20260905172516 | 76 | 0.0 | 1.0 | 0.01 | 0.12 | 0.02 | 92 | 1022.4 | |
| 20260905172036 | 76 | 0.0 | 1.0 | 0.01 | 0.12 | 0.02 | 92 | 1022.5 | |
| 20260905171516 | 76 | 0.0 | 1.0 | 0.01 | 0.12 | 0.02 | 91 | 1022.3 | |
| 20260905171016 | 76 | 0.0 | 3.0 | 0.01 | 0.12 | 0.02 | 91 | 1022.5 | |
| 20260905170516 | 76 | 0.0 | 1.0 | 0.01 | 0.12 | 0.02 | 91 | 1022.8 | |
| 20260905170036 | 76 | 0.0 | 1.0 | 0.01 | 0.12 | 0.02 | 90 | 1022.9 | |
| 20260905165556 | 77 | 0.0 | 1.0 | 0.01 | 0.12 | 0.02 | 89 | 1023.1 | |
| 20260905165036 | 77 | 0.0 | 1.0 | 0.01 | 0.12 | 0.02 | 88 | 1023.1 | |
| 20260905164516 | 78 | 0.0 | 1.0 | 0.01 | 0.12 | 0.02 | 86 | 1023.1 | |
| 20260905164016 | 79 | 0.0 | 2.0 | 0.01 | 0.12 | 0.02 | 84 | 1023.1 | |
| 20260905163516 | 80 | 0.0 | 0.0 | 0.01 | 0.12 | 0.02 | 83 | 1023.0 | |
| 20260905163016 | 81 | 0.0 | 1.0 | 0.00 | 0.11 | 0.01 | 81 | 1023.1 | |
| 20260905162516 | 82 | 0.0 | 2.0 | 0.00 | 0.11 | 0.01 | 77 | 1023.2 | |
| 20260905162036 | 83 | 0.0 | 0.0 | 0.00 | 0.11 | 0.01 | 75 | 1023.2 | |
| 20260905161516 | 84 | 0.0 | 0.0 | 0.00 | 0.11 | 0.01 | 73 | 1023.1 | |
| 20260905161016 | 85 | 0.0 | 0.0 | 0.00 | 0.11 | 0.01 | 72 | 1023.0 | |
| 20260905160516 | 86 | 0.0 | 1.0 | 0.00 | 0.11 | 0.01 | 70 | 1022.8 | |
| 20260905160056 | 86 | 0.0 | 3.0 | 0.00 | 0.11 | 0.01 | 67 | 1022.7 | |
| 20260905155536 | 87 | 0.0 | 3.0 | 0.00 | 0.11 | 0.01 | 70 | 1022.5 | |
| 20260905155016 | 87 | 0.0 | 3.0 | 0.00 | 0.11 | 0.01 | 70 | 1022.4 | |
| 20260905154516 | 87 | 338 | 1.0 | 3.0 | 0.00 | 0.11 | 0.01 | 70 | 1022.3 |
| 20260905154015 | 87 | 0.0 | 2.0 | 0.00 | 0.11 | 0.01 | 69 | 1022.4 | |
| 20260905153516 | 87 | 23 | 1.0 | 3.0 | 0.00 | 0.11 | 0.01 | 68 | 1022.4 |
| 20260905153016 | 87 | 203 | 1.0 | 2.0 | 0.00 | 0.11 | 0.01 | 67 | 1022.5 |
| 20260905152516 | 87 | 23 | 1.0 | 7.0 | 0.00 | 0.11 | 0.01 | 67 | 1022.4 |
| 20260905152016 | 87 | 135 | 1.0 | 3.0 | 0.00 | 0.11 | 0.01 | 71 | 1022.6 |
| 20260905151516 | 87 | 0.0 | 3.0 | 0.00 | 0.11 | 0.01 | 71 | 1022.5 | |
| 20260905151016 | 86 | 158 | 1.0 | 3.0 | 0.00 | 0.11 | 0.01 | 72 | 1022.5 |
| 20260905150536 | 86 | 135 | 1.0 | 2.0 | 0.00 | 0.11 | 0.01 | 73 | 1022.5 |
| 20260905150036 | 86 | 135 | 1.0 | 3.0 | 0.00 | 0.11 | 0.01 | 75 | 1022.4 |
| 20260905145516 | 86 | 0.0 | 3.0 | 0.00 | 0.11 | 0.01 | 72 | 1022.5 | |
| 20260905145035 | 85 | 158 | 1.0 | 3.0 | 0.00 | 0.11 | 0.01 | 73 | 1022.4 |
| 20260905144516 | 85 | 158 | 2.0 | 5.0 | 0.00 | 0.11 | 0.01 | 74 | 1022.5 |
| 20260905144016 | 85 | 158 | 1.0 | 3.0 | 0.00 | 0.11 | 0.01 | 74 | 1022.6 |
| 20260905143516 | 84 | 0.0 | 2.0 | 0.00 | 0.11 | 0.01 | 75 | 1022.5 | |
| 20260905143016 | 83 | 338 | 1.0 | 3.0 | 0.00 | 0.11 | 0.01 | 77 | 1022.5 |
| 20260905142536 | 83 | 0.0 | 1.0 | 0.00 | 0.11 | 0.01 | 78 | 1022.6 | |
| 20260905142015 | 84 | 315 | 1.0 | 2.0 | 0.00 | 0.11 | 0.01 | 78 | 1022.5 |
| 20260905141536 | 84 | 0.0 | 2.0 | 0.00 | 0.11 | 0.01 | 77 | 1022.4 | |
| 20260905141036 | 84 | 225 | 1.0 | 3.0 | 0.00 | 0.11 | 0.01 | 77 | 1022.4 |
| 20260905140516 | 83 | 0.0 | 2.0 | 0.00 | 0.11 | 0.01 | 77 | 1022.4 | |
| 20260905140015 | 83 | 0.0 | 1.0 | 0.00 | 0.11 | 0.01 | 78 | 1022.4 | |
| 20260905135515 | 82 | 0.0 | 2.0 | 0.00 | 0.11 | 0.01 | 79 | 1022.3 | |
| 20260905135015 | 82 | 0.0 | 1.0 | 0.00 | 0.11 | 0.01 | 83 | 1022.3 | |
| 20260905134516 | 81 | 0.0 | 2.0 | 0.00 | 0.11 | 0.01 | 81 | 1022.2 | |
| 20260905134016 | 81 | 0.0 | 1.0 | 0.00 | 0.11 | 0.01 | 87 | 1022.0 | |
| 20260905133516 | 80 | 0.0 | 2.0 | 0.00 | 0.11 | 0.01 | 86 | 1021.8 | |
| 20260905133016 | 80 | 0.0 | 1.0 | 0.00 | 0.11 | 0.01 | 90 | 1022.0 | |
| 20260905132516 | 79 | 0.0 | 1.0 | 0.00 | 0.11 | 0.01 | 92 | 1021.9 | |
| 20260905132016 | 78 | 0.0 | 0.0 | 0.00 | 0.11 | 0.01 | 92 | 1022.0 | |
| 20260905131516 | 78 | 0.0 | 1.0 | 0.00 | 0.11 | 0.01 | 91 | 1022.0 | |
| 20260905131016 | 77 | 0.0 | 1.0 | 0.00 | 0.11 | 0.01 | 92 | 1021.9 | |
| 20260905130515 | 77 | 0.0 | 0.0 | 0.00 | 0.11 | 0.01 | 94 | 1021.9 | |
| 20260905130036 | 76 | 0.0 | 0.0 | 0.00 | 0.11 | 0.01 | 95 | 1021.7 | |
| 20260905125516 | 75 | 0.0 | 0.0 | 0.00 | 0.11 | 0.01 | 96 | 1021.8 | |
| 20260905125016 | 74 | 0.0 | 0.0 | 0.00 | 0.11 | 0.01 | 96 | 1021.9 | |
| 20260905124515 | 74 | 0.0 | 0.0 | 0.00 | 0.11 | 0.01 | 96 | 1021.8 | |
| 20260905124016 | 73 | 0.0 | 0.0 | 0.00 | 0.11 | 0.01 | 96 | 1021.9 | |
| 20260905123516 | 73 | 0.0 | 1.0 | 0.00 | 0.11 | 0.01 | 97 | 1022.0 | |
| 20260905123036 | 72 | 0.0 | 1.0 | 0.00 | 0.11 | 0.01 | 96 | 1022.0 | |
| 20260905122516 | 72 | 0.0 | 0.0 | 0.00 | 0.11 | 0.01 | 96 | 1022.0 | |
| 20260905122016 | 72 | 0.0 | 0.0 | 0.00 | 0.11 | 0.01 | 97 | 1021.9 | |
| 20260905121516 | 71 | 0.0 | 1.0 | 0.00 | 0.11 | 0.01 | 96 | 1021.9 | |
| 20260905121016 | 71 | 0.0 | 0.0 | 0.00 | 0.11 | 0.01 | 96 | 1022.0 | |
| 20260905120515 | 71 | 0.0 | 1.0 | 0.00 | 0.11 | 0.01 | 96 | 1021.8 | |
| 20260905120016 | 71 | 0.0 | 1.0 | 0.00 | 0.11 | 0.01 | 96 | 1021.8 | |
| 20260905115516 | 70 | 0.0 | 0.0 | 0.00 | 0.11 | 0.01 | 96 | 1021.7 | |
| 20260905115016 | 70 | 0.0 | 0.0 | 0.00 | 0.11 | 0.01 | 96 | 1021.9 | |
| 20260905114516 | 70 | 0.0 | 0.0 | 0.00 | 0.11 | 0.01 | 96 | 1021.9 | |
| 20260905114016 | 70 | 0.0 | 0.0 | 0.00 | 0.11 | 0.01 | 96 | 1021.9 | |
| 20260905113516 | 70 | 0.0 | 0.0 | 0.00 | 0.11 | 0.01 | 96 | 1021.8 | |
| 20260905113016 | 70 | 0.0 | 0.0 | 0.00 | 0.11 | 0.01 | 96 | 1021.9 | |
| 20260905112516 | 70 | 0.0 | 0.0 | 0.00 | 0.11 | 0.01 | 96 | 1021.9 | |
| 20260905112016 | 70 | 0.0 | 0.0 | 0.00 | 0.11 | 0.01 | 96 | 1021.8 | |
| 20260905111516 | 69 | 0.0 | 0.0 | 0.00 | 0.11 | 0.01 | 96 | 1021.8 | |
| 20260905111016 | 69 | 0.0 | 0.0 | 0.00 | 0.11 | 0.01 | 96 | 1021.7 | |
| 20260905110516 | 69 | 0.0 | 0.0 | 0.00 | 0.11 | 0.01 | 96 | 1021.6 | |
| 20260905110016 | 70 | 0.0 | 0.0 | 0.00 | 0.11 | 0.01 | 96 | 1021.5 | |
| 20260905105516 | 70 | 0.0 | 0.0 | 0.00 | 0.11 | 0.01 | 96 | 1021.5 | |
| 20260905105015 | 70 | 0.0 | 0.0 | 0.00 | 0.11 | 0.01 | 96 | 1021.5 | |
| 20260905104516 | 70 | 0.0 | 0.0 | 0.00 | 0.11 | 0.01 | 96 | 1021.4 | |
| 20260905104016 | 70 | 0.0 | 0.0 | 0.00 | 0.11 | 0.01 | 96 | 1021.4 | |
| 20260905103516 | 70 | 0.0 | 0.0 | 0.00 | 0.11 | 0.01 | 96 | 1021.2 | |
| 20260905103016 | 70 | 0.0 | 0.0 | 0.00 | 0.11 | 0.01 | 96 | 1021.1 | |
| 20260905102516 | 70 | 0.0 | 0.0 | 0.00 | 0.11 | 0.01 | 96 | 1021.1 | |
| 20260905102016 | 70 | 0.0 | 0.0 | 0.00 | 0.11 | 0.01 | 96 | 1021.0 | |
| 20260905101536 | 70 | 0.0 | 0.0 | 0.00 | 0.11 | 0.01 | 96 | 1021.0 | |
| 20260905101056 | 70 | 0.0 | 0.0 | 0.00 | 0.11 | 0.01 | 96 | 1021.1 | |
| 20260905100515 | 70 | 0.0 | 0.0 | 0.00 | 0.11 | 0.01 | 96 | 1021.2 | |
| 20260905100036 | 70 | 0.0 | 0.0 | 0.00 | 0.11 | 0.01 | 96 | 1021.2 | |
| 20260905095516 | 70 | 0.0 | 0.0 | 0.00 | 0.11 | 0.01 | 96 | 1021.3 | |
| 20260905095036 | 70 | 0.0 | 0.0 | 0.00 | 0.11 | 0.01 | 96 | 1021.2 | |
| 20260905094516 | 70 | 0.0 | 0.0 | 0.00 | 0.11 | 0.01 | 96 | 1021.2 | |
| 20260905094015 | 70 | 0.0 | 0.0 | 0.00 | 0.11 | 0.01 | 96 | 1021.2 | |
| 20260905093516 | 70 | 0.0 | 0.0 | 0.00 | 0.11 | 0.01 | 96 | 1021.0 | |
| 20260905093015 | 70 | 0.0 | 0.0 | 0.00 | 0.11 | 0.01 | 96 | 1021.1 | |
| 20260905092515 | 70 | 0.0 | 0.0 | 0.00 | 0.11 | 0.01 | 96 | 1021.2 | |
| 20260905092016 | 70 | 0.0 | 0.0 | 0.00 | 0.11 | 0.01 | 96 | 1021.2 | |
| 20260905091516 | 70 | 0.0 | 0.0 | 0.00 | 0.11 | 0.01 | 96 | 1021.4 | |
| 20260905091036 | 70 | 0.0 | 0.0 | 0.00 | 0.11 | 0.01 | 96 | 1021.4 | |
| 20260905090515 | 70 | 0.0 | 0.0 | 0.00 | 0.11 | 0.01 | 96 | 1021.5 | |
| 20260905090016 | 70 | 0.0 | 0.0 | 0.00 | 0.11 | 0.01 | 96 | 1021.5 | |
| 20260905085516 | 70 | 0.0 | 0.0 | 0.00 | 0.11 | 0.01 | 96 | 1021.6 | |
| 20260905085036 | 70 | 0.0 | 0.0 | 0.00 | 0.11 | 0.01 | 96 | 1021.6 | |
| 20260905084516 | 70 | 0.0 | 0.0 | 0.00 | 0.11 | 0.01 | 96 | 1021.6 | |
| 20260905084036 | 70 | 0.0 | 0.0 | 0.00 | 0.11 | 0.01 | 96 | 1021.6 | |
| 20260905083516 | 70 | 0.0 | 0.0 | 0.00 | 0.11 | 0.01 | 96 | 1021.6 | |
| 20260905083016 | 70 | 0.0 | 0.0 | 0.00 | 0.11 | 0.01 | 96 | 1021.6 | |
| 20260905082516 | 70 | 0.0 | 1.0 | 0.00 | 0.11 | 0.01 | 96 | 1021.7 | |
| 20260905082016 | 70 | 0.0 | 0.0 | 0.00 | 0.11 | 0.01 | 96 | 1021.8 | |
| 20260905081515 | 70 | 0.0 | 0.0 | 0.00 | 0.11 | 0.01 | 96 | 1021.8 | |
| 20260905081016 | 70 | 0.0 | 0.0 | 0.00 | 0.11 | 0.01 | 96 | 1021.9 | |
| 20260905080516 | 70 | 0.0 | 0.0 | 0.00 | 0.11 | 0.01 | 96 | 1021.9 | |
| 20260905080016 | 70 | 0.0 | 0.0 | 0.00 | 0.11 | 0.01 | 96 | 1021.9 | |
| 20260905075556 | 70 | 0.0 | 0.0 | 0.00 | 0.11 | 0.01 | 96 | 1021.9 | |
| 20260905075016 | 70 | 0.0 | 0.0 | 0.00 | 0.11 | 0.01 | 96 | 1021.9 | |
| 20260905074516 | 70 | 0.0 | 0.0 | 0.00 | 0.11 | 0.01 | 96 | 1021.9 | |
| 20260905074015 | 70 | 0.0 | 0.0 | 0.00 | 0.11 | 0.01 | 96 | 1022.0 | |
| 20260905073516 | 70 | 0.0 | 0.0 | 0.00 | 0.11 | 0.01 | 96 | 1022.0 | |
| 20260905073015 | 70 | 0.0 | 0.0 | 0.00 | 0.11 | 0.01 | 96 | 1021.9 | |
| 20260905072536 | 70 | 0.0 | 1.0 | 0.00 | 0.11 | 0.01 | 96 | 1021.9 | |
| 20260905072016 | 70 | 0.0 | 0.0 | 0.00 | 0.11 | 0.01 | 96 | 1022.0 | |
| 20260905071515 | 70 | 0.0 | 0.0 | 0.00 | 0.11 | 0.01 | 96 | 1022.0 | |
| 20260905071016 | 70 | 0.0 | 0.0 | 0.00 | 0.11 | 0.01 | 96 | 1022.0 | |
| 20260905070516 | 70 | 0.0 | 0.0 | 0.00 | 0.11 | 0.01 | 96 | 1022.1 | |
| 20260905070016 | 70 | 0.0 | 0.0 | 0.00 | 0.11 | 0.01 | 96 | 1022.1 | |
| 20260905065516 | 70 | 0.0 | 0.0 | 0.00 | 0.11 | 0.01 | 96 | 1022.2 | |
| 20260905065016 | 70 | 0.0 | 0.0 | 0.00 | 0.11 | 0.01 | 96 | 1022.2 | |
| 20260905064556 | 70 | 0.0 | 1.0 | 0.00 | 0.11 | 0.01 | 96 | 1022.4 | |
| 20260905064016 | 70 | 0.0 | 0.0 | 0.00 | 0.11 | 0.01 | 96 | 1022.4 | |
| 20260905063516 | 70 | 0.0 | 0.0 | 0.00 | 0.11 | 0.01 | 95 | 1022.4 | |
| 20260905063016 | 70 | 0.0 | 1.0 | 0.00 | 0.11 | 0.01 | 96 | 1022.4 | |
| 20260905062516 | 70 | 0.0 | 1.0 | 0.00 | 0.11 | 0.01 | 95 | 1022.5 | |
| 20260905062016 | 70 | 0.0 | 0.0 | 0.00 | 0.11 | 0.01 | 95 | 1022.6 | |
| 20260905061516 | 70 | 0.0 | 0.0 | 0.00 | 0.11 | 0.01 | 96 | 1022.7 | |
| 20260905061016 | 70 | 0.0 | 0.0 | 0.00 | 0.11 | 0.01 | 96 | 1022.6 | |
| 20260905060515 | 70 | 0.0 | 0.0 | 0.01 | 0.11 | 0.01 | 96 | 1022.5 | |
| 20260905060016 | 70 | 0.0 | 1.0 | 0.01 | 0.11 | 0.01 | 96 | 1022.5 | |
| 20260905055516 | 70 | 0.0 | 0.0 | 0.01 | 0.11 | 0.01 | 95 | 1022.5 | |
| 20260905055015 | 70 | 0.0 | 1.0 | 0.01 | 0.11 | 0.01 | 95 | 1022.6 | |
| 20260905054515 | 70 | 0.0 | 1.0 | 0.01 | 0.11 | 0.01 | 95 | 1022.8 | |
| 20260905054015 | 70 | 0.0 | 0.0 | 0.01 | 0.11 | 0.01 | 95 | 1023.0 | |
| 20260905053516 | 70 | 0.0 | 0.0 | 0.01 | 0.11 | 0.01 | 95 | 1023.1 | |
| 20260905053036 | 70 | 0.0 | 0.0 | 0.01 | 0.11 | 0.01 | 95 | 1023.2 | |
| 20260905052516 | 70 | 0.0 | 0.0 | 0.01 | 0.11 | 0.01 | 95 | 1023.3 | |
| 20260905052136 | 70 | 0.0 | 0.0 | 0.01 | 0.11 | 0.01 | 95 | 1023.4 | |
| 20260905051536 | 70 | 0.0 | 0.0 | 0.01 | 0.11 | 0.01 | 95 | 1023.4 | |
| 20260905051016 | 70 | 0.0 | 0.0 | 0.01 | 0.11 | 0.01 | 95 | 1023.3 | |
| 20260905050536 | 71 | 0.0 | 0.0 | 0.00 | 0.10 | 0.00 | 95 | 1023.4 | |
| 20260905050015 | 71 | 0.0 | 0.0 | 0.00 | 0.10 | 0.00 | 95 | 1023.5 | |
| 20260905045536 | 71 | 0.0 | 0.0 | 0.00 | 0.10 | 0.00 | 95 | 1023.5 | |
| 20260905045036 | 71 | 0.0 | 0.0 | 0.00 | 0.10 | 0.00 | 95 | 1023.6 | |
| 20260905044536 | 71 | 0.0 | 0.0 | 0.00 | 0.10 | 0.00 | 95 | 1023.6 | |
| 20260905044016 | 71 | 0.0 | 0.0 | 0.00 | 0.10 | 0.00 | 95 | 1023.5 | |
| 20260905043516 | 71 | 0.0 | 0.0 | 0.00 | 0.10 | 0.00 | 95 | 1023.5 | |
| 20260905043016 | 71 | 0.0 | 0.0 | 0.00 | 0.10 | 0.00 | 95 | 1023.6 | |
| 20260905042516 | 71 | 0.0 | 0.0 | 0.00 | 0.10 | 0.00 | 95 | 1023.6 | |
| 20260905042016 | 71 | 0.0 | 1.0 | 0.00 | 0.10 | 0.00 | 95 | 1023.6 | |
| 20260905041516 | 71 | 0.0 | 0.0 | 0.00 | 0.10 | 0.00 | 95 | 1023.7 | |
| 20260905041015 | 71 | 0.0 | 1.0 | 0.00 | 0.10 | 0.00 | 95 | 1023.8 | |
| 20260905040515 | 71 | 0.0 | 1.0 | 0.00 | 0.10 | 0.00 | 95 | 1023.9 | |
| 20260905040016 | 71 | 0.0 | 1.0 | 0.00 | 0.10 | 0.00 | 95 | 1024.0 | |
| 20260905035516 | 71 | 0.0 | 1.0 | 0.00 | 0.10 | 0.10 | 95 | 1023.8 | |
| 20260905035016 | 71 | 0.0 | 1.0 | 0.00 | 0.10 | 0.10 | 95 | 1023.8 | |
| 20260905034516 | 71 | 0.0 | 0.0 | 0.00 | 0.10 | 0.10 | 95 | 1023.8 | |
| 20260905034016 | 71 | 0.0 | 1.0 | 0.00 | 0.10 | 0.10 | 95 | 1024.1 | |
| 20260905033536 | 71 | 0.0 | 0.0 | 0.00 | 0.10 | 0.10 | 95 | 1024.1 | |
| 20260905033016 | 71 | 0.0 | 1.0 | 0.00 | 0.10 | 0.10 | 95 | 1024.0 | |
| 20260905032536 | 72 | 0.0 | 1.0 | 0.00 | 0.10 | 0.10 | 95 | 1024.2 | |
| 20260905032036 | 72 | 0.0 | 1.0 | 0.00 | 0.10 | 0.10 | 95 | 1024.2 | |
| 20260905031516 | 72 | 0.0 | 1.0 | 0.00 | 0.10 | 0.10 | 95 | 1024.1 | |
| 20260905031016 | 72 | 0.0 | 1.0 | 0.00 | 0.10 | 0.10 | 95 | 1023.9 | |
| 20260905030516 | 72 | 0.0 | 0.0 | 0.00 | 0.10 | 0.10 | 95 | 1023.9 | |
| 20260905030016 | 72 | 0.0 | 1.0 | 0.00 | 0.10 | 0.10 | 95 | 1024.1 | |
| 20260905025516 | 72 | 0.0 | 1.0 | 0.00 | 0.10 | 0.10 | 95 | 1024.0 | |
| 20260905025016 | 72 | 0.0 | 0.0 | 0.00 | 0.10 | 0.10 | 95 | 1024.0 | |
| 20260905024516 | 73 | 0.0 | 0.0 | 0.00 | 0.10 | 0.10 | 95 | 1024.2 | |
| 20260905024017 | 73 | 0.0 | 1.0 | 0.00 | 0.10 | 0.10 | 95 | 1024.5 | |
| 20260905023536 | 73 | 0.0 | 0.0 | 0.00 | 0.10 | 0.10 | 95 | 1024.5 | |
| 20260905023036 | 73 | 0.0 | 0.0 | 0.00 | 0.10 | 0.10 | 95 | 1024.3 | |
| 20260905022516 | 73 | 0.0 | 2.0 | 0.00 | 0.10 | 0.10 | 95 | 1024.3 | |
| 20260905022036 | 73 | 0.0 | 1.0 | 0.00 | 0.10 | 0.10 | 95 | 1024.5 | |
| 20260905021536 | 73 | 0.0 | 2.0 | 0.00 | 0.10 | 0.10 | 95 | 1024.4 | |
| 20260905021016 | 73 | 0.0 | 3.0 | 0.00 | 0.10 | 0.10 | 95 | 1024.4 | |
| 20260905020516 | 73 | 0.0 | 1.0 | 0.00 | 0.10 | 0.10 | 95 | 1024.3 | |
| 20260905020016 | 73 | 0.0 | 1.0 | 0.00 | 0.10 | 0.10 | 95 | 1024.6 | |
| 20260905015516 | 73 | 0.0 | 0.0 | 0.00 | 0.10 | 0.10 | 95 | 1024.6 | |
| 20260905015016 | 73 | 0.0 | 1.0 | 0.00 | 0.10 | 0.10 | 95 | 1024.8 | |
| 20260905014516 | 73 | 0.0 | 0.0 | 0.00 | 0.10 | 0.10 | 95 | 1024.7 | |
| 20260905014016 | 73 | 0.0 | 1.0 | 0.00 | 0.10 | 0.10 | 95 | 1024.6 | |
| 20260905013516 | 73 | 0.0 | 0.0 | 0.00 | 0.10 | 0.10 | 95 | 1024.6 | |
| 20260905013016 | 73 | 0.0 | 1.0 | 0.00 | 0.10 | 0.10 | 94 | 1024.4 | |
| 20260905012516 | 73 | 0.0 | 0.0 | 0.00 | 0.10 | 0.10 | 94 | 1024.3 | |
| 20260905012016 | 73 | 0.0 | 1.0 | 0.00 | 0.10 | 0.10 | 94 | 1023.9 | |
| 20260905011516 | 73 | 0.0 | 1.0 | 0.00 | 0.10 | 0.10 | 94 | 1023.9 | |
| 20260905011016 | 73 | 0.0 | 1.0 | 0.00 | 0.10 | 0.10 | 94 | 1023.5 | |
| 20260905010536 | 73 | 0.0 | 0.0 | 0.00 | 0.10 | 0.10 | 94 | 1023.3 | |
| 20260905010016 | 73 | 0.0 | 1.0 | 0.00 | 0.10 | 0.10 | 94 | 1023.2 | |
| 20260905005516 | 73 | 0.0 | 1.0 | 0.00 | 0.10 | 0.10 | 94 | 1023.1 | |
| 20260905005036 | 73 | 0.0 | 1.0 | 0.00 | 0.10 | 0.10 | 94 | 1023.0 | |
| 20260905004516 | 73 | 0.0 | 1.0 | 0.00 | 0.10 | 0.10 | 94 | 1022.8 | |
| 20260905004016 | 73 | 0.0 | 1.0 | 0.00 | 0.10 | 0.10 | 94 | 1022.6 | |
| 20260905003516 | 73 | 0.0 | 1.0 | 0.00 | 0.10 | 0.10 | 94 | 1022.4 | |
| 20260905003021 | 73 | 0.0 | 0.0 | 0.02 | 0.10 | 0.10 | 94 | 1022.3 | |
| 20260905002516 | 73 | 0.0 | 0.0 | 0.10 | 0.10 | 0.10 | 93 | 1021.9 | |
| 20260905002016 | 73 | 0.0 | 0.0 | 0.10 | 0.10 | 0.10 | 93 | 1021.7 | |
| 20260905001516 | 73 | 135 | 1.0 | 2.0 | 0.10 | 0.10 | 0.10 | 93 | 1021.5 |
| 20260905001016 | 73 | 0.0 | 1.0 | 0.10 | 0.10 | 0.10 | 93 | 1021.7 | |
| 20260905000516 | 73 | 0.0 | 0.0 | 0.10 | 0.10 | 0.10 | 93 | 1021.4 | |
| 20260905000016 | 74 | 0.0 | 1.0 | 0.10 | 0.10 | 0.10 | 93 | 1021.4 | |
| 20260904235516 | 74 | 135 | 1.0 | 3.0 | 0.10 | 0.10 | 0.10 | 91 | 1021.3 |
| 20260904235016 | 74 | 0 | 1.0 | 1.0 | 0.10 | 0.10 | 0.10 | 91 | 1021.9 |
| 20260904234516 | 75 | 0.0 | 2.0 | 0.10 | 0.10 | 0.10 | 89 | 1021.8 | |
| 20260904234036 | 75 | 0.0 | 1.0 | 0.10 | 0.10 | 0.10 | 87 | 1022.8 | |
| 20260904233516 | 77 | 0.0 | 3.0 | 0.10 | 0.10 | 0.10 | 86 | 1023.6 | |
| 20260904233016 | 78 | 0 | 1.0 | 3.0 | 0.08 | 0.08 | 0.08 | 83 | 1024.5 |
| 20260904232556 | 79 | 338 | 1.0 | 3.0 | 0.00 | 0.00 | 0.00 | 80 | 1025.1 |
| 20260904232016 | 79 | 338 | 1.0 | 2.0 | 0.00 | 0.00 | 0.00 | 79 | 1025.0 |
| 20260904231516 | 80 | 0.0 | 0.0 | 0.00 | 0.00 | 0.00 | 79 | 1025.1 | |
| 20260904231016 | 80 | 0.0 | 0.0 | 0.00 | 0.00 | 0.00 | 78 | 1025.3 | |
| 20260904230516 | 80 | 0.0 | 0.0 | 0.00 | 0.00 | 0.00 | 77 | 1024.8 | |
| 20260904230016 | 80 | 0.0 | 0.0 | 0.00 | 0.00 | 0.00 | 77 | 1024.7 | |
| 20260904225516 | 81 | 0.0 | 1.0 | 0.00 | 0.00 | 0.00 | 76 | 1024.7 | |
| 20260904225016 | 81 | 0.0 | 4.0 | 0.00 | 0.00 | 0.00 | 76 | 1024.5 | |
| 20260904224536 | 81 | 338 | 1.0 | 4.0 | 0.00 | 0.00 | 0.00 | 75 | 1025.0 |
| 20260904224056 | 82 | 0.0 | 2.0 | 0.00 | 0.00 | 0.00 | 74 | 1024.4 | |
| 20260904223516 | 83 | 0.0 | 1.0 | 0.00 | 0.00 | 0.00 | 73 | 1024.4 | |
| 20260904223016 | 83 | 0.0 | 1.0 | 0.00 | 0.00 | 0.00 | 71 | 1024.3 | |
| 20260904222516 | 84 | 158 | 1.0 | 3.0 | 0.00 | 0.00 | 0.00 | 70 | 1024.3 |
| 20260904222016 | 85 | 0.0 | 0.0 | 0.00 | 0.00 | 0.00 | 69 | 1024.0 | |
| 20260904221536 | 85 | 293 | 1.0 | 5.0 | 0.00 | 0.00 | 0.00 | 67 | 1023.9 |
| 20260904221016 | 86 | 270 | 1.0 | 4.0 | 0.00 | 0.00 | 0.00 | 66 | 1023.7 |
| 20260904220516 | 87 | 315 | 1.0 | 3.0 | 0.00 | 0.00 | 0.00 | 68 | 1023.2 |
| 20260904220016 | 87 | 338 | 1.0 | 3.0 | 0.00 | 0.00 | 0.00 | 69 | 1023.1 |
| 20260904215516 | 88 | 203 | 1.0 | 3.0 | 0.00 | 0.00 | 0.00 | 72 | 1022.8 |
| 20260904215016 | 88 | 0.0 | 0.0 | 0.00 | 0.00 | 0.00 | 74 | 1022.5 | |
| 20260904214516 | 89 | 0.0 | 0.0 | 0.00 | 0.00 | 0.00 | 72 | 1022.1 |